sat.trackr.live / text

‹ back to catalog

STARLINK-11213 [DTC]

NORAD 60309 · 2024-133J

PAYLOAD ACTIVE UNKNOWN

§ Identity

Operator
Country
US
Launch date
2024-07-28
Launch site
AFWTR
Launch vehicle
Mass (kg)
RCS (m²)

Purposes: comms

External: N2YO · Heavens-Above · Gunter

§ Orbital elements

Epoch: 2026-09-21T16:54:03.768192Z

Period
91.74 min
Inclination
53.1585°
Eccentricity
0.0000958
Mean motion
15.69705032 rev/d
Perigee alt
359.1 km
Apogee alt
360.4 km
Semi-major
6,737.9 km
B*
-9.0248e-6
RAAN
259.6989°
Arg perigee
94.8481°
Mean anomaly
265.2646°
Rev number
12,452

§ Raw data

STARLINK-11213 [DTC]1 60309U 24133J   26264.70421028 -.00001681  00000+0 -90248-5 0  99902 60309  53.1585 259.6989 0000958  94.8481 265.2646 15.69705032124524

JSON: /api/v1/satellites/60309 · /tle

For live sub-satellite position, see the globe view (requires WebGL).

§ Visibility from observer

Set your observer location to see the next 7 days of passes ≥ 10°. The values pass through the URL so the page stays shareable.

No JS? Fill the form by hand. The geolocation button needs JavaScript.